Time,TemperatureF,DewpointF,PressureIn,WindDirection,WindDirectionDegrees,WindSpeedMPH,WindSpeedGustMPH,Humidity,HourlyPrecipIn,Conditions,Clouds,dailyrainin,SolarRadiationWatts/m^2,SoftwareType,DateUTC
2013-03-12 00:00:00,65.3,59.7,29.99,East,95,0.0,0.0,82,0.00,BKN,,0.00,0.0,WeatherDisplay:10.37,2013-03-12 04:00:00,
2013-03-12 00:01:00,65.3,59.7,29.99,East,95,0.0,0.0,82,0.00,CLR,,0.00,0.0,WeatherDisplay:10.37,2013-03-12 04:01:00,
2013-03-12 00:06:00,65.1,59.5,29.99,East,95,0.1,1.2,82,0.00,CLR,,0.00,0.0,WeatherDisplay:10.37,2013-03-12 04:06:00,
2013-03-12 00:11:00,65.0,59.7,29.99,East,95,0.0,0.0,83,0.00,CLR,,0.00,0.0,WeatherDisplay:10.37,2013-03-12 04:11:00,
2013-03-12 00:16:00,64.8,59.5,29.99,East,95,0.0,0.0,83,0.00,CLR,,0.00,0.0,WeatherDisplay:10.37,2013-03-12 04:16:00,
2013-03-12 00:21:00,64.6,59.3,29.99,East,95,0.0,0.0,83,0.00,CLR,,0.00,0.0,WeatherDisplay:10.37,2013-03-12 04:21:00,
2013-03-12 00:26:00,64.4,59.5,29.99,East,95,0.0,0.0,84,0.00,CLR,,0.00,0.0,WeatherDisplay:10.37,2013-03-12 04:26:00,
2013-03-12 00:31:00,64.2,59.3,29.98,East,96,0.0,0.0,84,0.00,CLR,,0.00,0.0,WeatherDisplay:10.37,2013-03-12 04:31:00,
2013-03-12 00:36:00,64.0,59.1,29.98,East,96,0.0,0.0,84,0.00,CLR,,0.00,0.0,WeatherDisplay:10.37,2013-03-12 04:36:00,
2013-03-12 00:41:00,63.8,59.2,29.98,South,191,1.2,4.6,85,0.00,CLR,,0.00,0.0,WeatherDisplay:10.37,2013-03-12 04:41:00,
2013-03-12 00:46:00,63.7,59.1,29.97,South,188,0.1,1.2,85,0.00,CLR,,0.00,0.0,WeatherDisplay:10.37,2013-03-12 04:46:00,
2013-03-12 00:51:00,63.7,59.1,29.96,South,170,0.1,1.2,85,0.00,CLR,,0.00,0.0,WeatherDisplay:10.37,2013-03-12 04:51:00,
2013-03-12 00:56:00,63.8,59.2,29.97,SSW,193,1.0,3.5,85,0.00,CLR,,0.00,0.0,WeatherDisplay:10.37,2013-03-12 04:56:00,
2013-03-12 01:01:00,64.0,59.4,29.97,ESE,110,0.1,1.2,85,0.00,CLR,,0.00,0.0,WeatherDisplay:10.37,2013-03-12 05:01:00,
2013-03-12 01:06:00,64.1,59.5,29.97,SSW,192,0.3,5.0,85,0.00,CLR,,0.00,0.0,WeatherDisplay:10.37,2013-03-12 05:06:00,
2013-03-12 01:11:00,64.1,59.5,29.96,SSE,167,0.2,2.0,85,0.00,CLR,,0.00,0.0,WeatherDisplay:10.37,2013-03-12 05:11:00,
2013-03-12 01:16:00,64.2,59.6,29.95,East,94,1.6,4.6,85,0.00,CLR,,0.00,0.0,WeatherDisplay:10.37,2013-03-12 05:16:00,
2013-03-12 01:21:00,64.3,59.7,29.95,South,179,0.8,3.5,85,0.00,CLR,,0.00,0.0,WeatherDisplay:10.37,2013-03-12 05:21:00,
2013-03-12 01:26:00,64.5,59.9,29.95,SW,216,0.4,2.0,85,0.00,CLR,,0.00,0.0,WeatherDisplay:10.37,2013-03-12 05:26:00,
2013-03-12 01:31:00,64.7,60.1,29.94,East,94,0.6,3.5,85,0.00,CLR,,0.00,0.0,WeatherDisplay:10.37,2013-03-12 05:31:00,
2013-03-12 01:36:00,64.9,60.3,29.94,South,186,0.2,1.2,85,0.00,CLR,,0.00,0.0,WeatherDisplay:10.37,2013-03-12 05:36:00,
2013-03-12 01:41:00,65.2,60.2,29.94,ESE,117,1.9,6.9,84,0.00,CLR,,0.00,0.0,WeatherDisplay:10.37,2013-03-12 05:41:00,
2013-03-12 01:46:00,65.3,60.3,29.93,SSW,199,1.5,3.5,84,0.00,CLR,,0.00,0.0,WeatherDisplay:10.37,2013-03-12 05:46:00,
2013-03-12 01:51:00,65.4,60.4,29.93,SE,146,3.3,9.2,84,0.00,CLR,,0.00,0.0,WeatherDisplay:10.37,2013-03-12 05:51:00,
2013-03-12 01:56:00,65.6,60.6,29.92,SSE,165,1.0,3.5,84,0.00,CLR,,0.00,0.0,WeatherDisplay:10.37,2013-03-12 05:56:00,
2013-03-12 02:01:00,65.9,60.9,29.93,SSW,213,1.8,4.6,84,0.00,CLR,,0.00,0.0,WeatherDisplay:10.37,2013-03-12 06:01:00,
2013-03-12 02:06:00,66.1,60.8,29.93,South,177,5.1,11.5,83,0.00,CLR,,0.00,0.0,WeatherDisplay:10.37,2013-03-12 06:06:00,
2013-03-12 02:11:00,66.2,60.9,29.93,South,188,0.9,3.5,83,0.00,CLR,,0.00,0.0,WeatherDisplay:10.37,2013-03-12 06:11:00,
2013-03-12 02:16:00,66.2,60.9,29.93,SSW,210,2.7,5.8,83,0.00,CLR,,0.00,0.0,WeatherDisplay:10.37,2013-03-12 06:16:00,
2013-03-12 02:21:00,66.2,60.9,29.93,SW,217,2.1,6.9,83,0.00,CLR,,0.00,0.0,WeatherDisplay:10.37,2013-03-12 06:21:00,
2013-03-12 02:26:00,66.3,61.0,29.93,East,88,0.7,3.5,83,0.00,CLR,,0.00,0.0,WeatherDisplay:10.37,2013-03-12 06:26:00,
2013-03-12 02:31:00,66.2,60.9,29.93,East,92,2.7,6.9,83,0.00,CLR,,0.00,0.0,WeatherDisplay:10.37,2013-03-12 06:31:00,
2013-03-12 02:36:00,66.3,61.0,29.93,SE,130,3.3,10.4,83,0.00,CLR,,0.00,0.0,WeatherDisplay:10.37,2013-03-12 06:36:00,
2013-03-12 02:41:00,66.3,61.0,29.92,SSE,161,1.4,6.9,83,0.00,CLR,,0.00,0.0,WeatherDisplay:10.37,2013-03-12 06:41:00,
2013-03-12 02:46:00,66.2,60.9,29.92,SE,136,2.1,4.6,83,0.00,CLR,,0.00,0.0,WeatherDisplay:10.37,2013-03-12 06:46:00,
2013-03-12 02:51:00,66.3,61.0,29.92,East,100,0.0,1.2,83,0.00,CLR,,0.00,0.0,WeatherDisplay:10.37,2013-03-12 06:51:00,
2013-03-12 02:56:00,66.3,61.0,29.93,South,186,2.1,6.9,83,0.00,CLR,,0.00,0.0,WeatherDisplay:10.37,2013-03-12 06:56:00,
2013-03-12 03:01:00,66.4,61.1,29.93,South,183,2.0,3.5,83,0.00,CLR,,0.00,0.0,WeatherDisplay:10.37,2013-03-12 07:01:00,
2013-03-12 03:06:00,66.4,60.7,29.93,South,182,3.1,4.6,82,0.00,CLR,,0.00,0.0,WeatherDisplay:10.37,2013-03-12 07:06:00,
2013-03-12 03:11:00,66.5,60.8,29.93,SSE,167,3.9,5.8,82,0.00,CLR,,0.00,0.0,WeatherDisplay:10.37,2013-03-12 07:11:00,
2013-03-12 03:16:00,66.4,60.7,29.92,SSE,161,1.2,3.5,82,0.00,CLR,,0.00,0.0,WeatherDisplay:10.37,2013-03-12 07:16:00,
2013-03-12 03:21:00,66.5,60.8,29.92,SSW,206,0.5,2.3,82,0.00,CLR,,0.00,0.0,WeatherDisplay:10.37,2013-03-12 07:21:00,
2013-03-12 03:26:00,66.5,60.8,29.93,East,81,1.7,5.8,82,0.00,CLR,,0.00,0.0,WeatherDisplay:10.37,2013-03-12 07:26:00,
2013-03-12 03:31:00,66.5,61.2,29.93,SSW,200,2.8,4.6,83,0.00,CLR,,0.00,0.0,WeatherDisplay:10.37,2013-03-12 07:31:00,
2013-03-12 03:36:00,66.5,61.2,29.92,South,186,3.7,8.1,83,0.00,CLR,,0.00,0.0,WeatherDisplay:10.37,2013-03-12 07:36:00,
2013-03-12 03:41:00,66.5,60.8,29.92,SSW,209,0.3,2.3,82,0.00,CLR,,0.00,0.0,WeatherDisplay:10.37,2013-03-12 07:41:00,
2013-03-12 03:46:00,66.4,61.1,29.92,SSE,165,1.1,4.0,83,0.00,CLR,,0.00,0.0,WeatherDisplay:10.37,2013-03-12 07:46:00,
2013-03-12 03:51:00,66.4,61.1,29.93,South,169,2.2,6.9,83,0.00,CLR,,0.00,0.0,WeatherDisplay:10.37,2013-03-12 07:51:00,
2013-03-12 03:56:00,66.3,61.0,29.93,South,169,0.5,4.0,83,0.00,CLR,,0.00,0.0,WeatherDisplay:10.37,2013-03-12 07:56:00,
2013-03-12 04:01:00,66.1,60.8,29.93,South,177,0.1,1.2,83,0.00,CLR,,0.00,0.0,WeatherDisplay:10.37,2013-03-12 08:01:00,
2013-03-12 04:06:00,65.9,60.6,29.93,South,177,0.0,0.0,83,0.00,CLR,,0.00,0.0,WeatherDisplay:10.37,2013-03-12 08:06:00,
2013-03-12 04:11:00,65.8,60.5,29.94,South,173,0.0,0.0,83,0.00,CLR,,0.00,0.0,WeatherDisplay:10.37,2013-03-12 08:11:00,
2013-03-12 04:16:00,65.6,60.6,29.93,South,172,0.0,0.0,84,0.00,CLR,,0.00,0.0,WeatherDisplay:10.37,2013-03-12 08:16:00,
2013-03-12 04:21:00,65.5,60.5,29.93,South,173,1.4,2.3,84,0.00,CLR,,0.00,0.0,WeatherDisplay:10.37,2013-03-12 08:21:00,
2013-03-12 04:26:00,65.3,60.3,29.92,South,173,0.0,0.0,84,0.00,CLR,,0.00,0.0,WeatherDisplay:10.37,2013-03-12 08:26:00,
2013-03-12 04:31:00,65.2,60.6,29.92,South,173,0.0,0.0,85,0.00,CLR,,0.00,0.0,WeatherDisplay:10.37,2013-03-12 08:31:00,
2013-03-12 04:36:00,64.9,60.3,29.93,South,173,0.0,0.0,85,0.00,CLR,,0.00,0.0,WeatherDisplay:10.37,2013-03-12 08:36:00,
2013-03-12 04:41:00,64.7,60.1,29.93,South,173,0.0,0.0,85,0.00,CLR,,0.00,0.0,WeatherDisplay:10.37,2013-03-12 08:41:00,
2013-03-12 04:46:00,64.5,59.9,29.93,South,175,0.0,0.0,85,0.00,CLR,,0.00,0.0,WeatherDisplay:10.37,2013-03-12 08:46:00,
2013-03-12 04:51:00,64.3,60.0,29.93,South,176,0.0,0.0,86,0.00,CLR,,0.00,0.0,WeatherDisplay:10.37,2013-03-12 08:51:00,
2013-03-12 04:56:00,64.0,59.7,29.93,South,176,0.0,0.0,86,0.00,CLR,,0.00,0.0,WeatherDisplay:10.37,2013-03-12 08:56:00,
2013-03-12 05:01:00,63.7,59.8,29.93,South,175,0.3,2.3,87,0.00,CLR,,0.00,0.0,WeatherDisplay:10.37,2013-03-12 09:01:00,
2013-03-12 05:06:00,63.5,59.6,29.93,South,175,0.0,0.0,87,0.00,CLR,,0.00,0.0,WeatherDisplay:10.37,2013-03-12 09:06:00,
2013-03-12 05:11:00,63.3,59.7,29.92,South,178,0.0,0.0,88,0.00,CLR,,0.00,0.0,WeatherDisplay:10.37,2013-03-12 09:11:00,
2013-03-12 05:16:00,63.2,59.6,29.92,South,178,0.0,0.0,88,0.00,CLR,,0.00,0.0,WeatherDisplay:10.37,2013-03-12 09:16:00,
2013-03-12 05:21:00,63.1,59.5,29.92,South,178,0.0,0.0,88,0.00,CLR,,0.00,0.0,WeatherDisplay:10.37,2013-03-12 09:21:00,
2013-03-12 05:26:00,62.9,59.3,29.91,South,178,0.0,0.0,88,0.00,CLR,,0.00,0.0,WeatherDisplay:10.37,2013-03-12 09:26:00,
2013-03-12 05:31:00,62.7,59.1,29.92,South,178,0.0,0.0,88,0.00,CLR,,0.00,0.0,WeatherDisplay:10.37,2013-03-12 09:31:00,
2013-03-12 05:36:00,62.5,59.2,29.91,South,178,0.0,0.0,89,0.00,CLR,,0.00,0.0,WeatherDisplay:10.37,2013-03-12 09:36:00,
2013-03-12 05:41:00,62.3,59.0,29.91,South,177,0.4,3.5,89,0.00,CLR,,0.00,0.0,WeatherDisplay:10.37,2013-03-12 09:41:00,
2013-03-12 05:46:00,62.2,58.9,29.92,South,174,0.3,3.5,89,0.00,CLR,,0.00,0.0,WeatherDisplay:10.37,2013-03-12 09:46:00,
2013-03-12 05:51:00,62.2,59.2,29.92,South,173,0.0,1.2,90,0.00,CLR,,0.00,0.0,WeatherDisplay:10.37,2013-03-12 09:51:00,
2013-03-12 05:56:00,62.3,59.3,29.92,SSW,202,0.3,2.3,90,0.00,CLR,,0.00,0.0,WeatherDisplay:10.37,2013-03-12 09:56:00,
2013-03-12 06:01:00,62.4,59.4,29.93,SSW,202,0.7,3.5,90,0.00,CLR,,0.00,0.0,WeatherDisplay:10.37,2013-03-12 10:01:00,
2013-03-12 06:06:00,62.6,59.6,29.93,SSW,200,1.3,5.8,90,0.00,CLR,,0.00,0.0,WeatherDisplay:10.37,2013-03-12 10:06:00,
2013-03-12 06:11:00,62.8,60.1,29.93,South,175,0.2,2.0,91,0.00,CLR,,0.00,0.0,WeatherDisplay:10.37,2013-03-12 10:11:00,
2013-03-12 06:16:00,63.1,60.1,29.93,South,175,0.0,0.0,90,0.00,CLR,,0.00,0.0,WeatherDisplay:10.37,2013-03-12 10:16:00,
2013-03-12 06:21:00,63.2,60.2,29.94,SSW,209,0.0,0.0,90,0.00,CLR,,0.00,0.0,WeatherDisplay:10.37,2013-03-12 10:21:00,
2013-03-12 06:26:00,63.4,60.4,29.93,SSW,205,0.8,2.3,90,0.00,CLR,,0.00,0.0,WeatherDisplay:10.37,2013-03-12 10:26:00,
2013-03-12 06:31:00,63.5,60.5,29.92,SSW,201,0.7,3.5,90,0.00,CLR,,0.00,0.0,WeatherDisplay:10.37,2013-03-12 10:31:00,
2013-03-12 06:36:00,63.7,60.7,29.91,SW,224,0.5,3.5,90,0.00,CLR,,0.00,0.0,WeatherDisplay:10.37,2013-03-12 10:36:00,
2013-03-12 06:41:00,63.9,60.6,29.90,ESE,106,0.7,3.5,89,0.00,CLR,,0.00,0.0,WeatherDisplay:10.37,2013-03-12 10:41:00,
2013-03-12 06:46:00,64.3,61.0,29.89,East,101,1.9,9.2,89,0.00,CLR,,0.00,0.0,WeatherDisplay:10.37,2013-03-12 10:46:00,
2013-03-12 06:51:00,64.7,61.4,29.91,South,170,0.8,4.6,89,0.00,CLR,,0.00,0.0,WeatherDisplay:10.37,2013-03-12 10:51:00,
2013-03-12 06:56:00,65.0,61.4,29.92,South,171,0.0,0.0,88,0.00,CLR,,0.00,0.0,WeatherDisplay:10.37,2013-03-12 10:56:00,
2013-03-12 07:01:00,65.1,61.5,29.92,SSE,166,0.0,0.0,88,0.00,-RA,,0.00,0.0,WeatherDisplay:10.37,2013-03-12 11:01:00,
2013-03-12 07:06:00,65.3,61.7,29.93,South,171,0.0,0.0,88,0.00,-RA,,0.00,0.0,WeatherDisplay:10.37,2013-03-12 11:06:00,
2013-03-12 07:11:00,65.3,61.3,29.92,South,170,0.1,1.2,87,0.00,-RA,,0.00,0.0,WeatherDisplay:10.37,2013-03-12 11:11:00,
2013-03-12 07:16:00,65.4,61.4,29.92,South,172,1.4,3.5,87,0.00,-RA,,0.00,0.0,WeatherDisplay:10.37,2013-03-12 11:16:00,
2013-03-12 07:21:00,65.4,61.4,29.92,South,173,0.5,3.5,87,0.00,-RA,,0.00,0.0,WeatherDisplay:10.37,2013-03-12 11:21:00,
2013-03-12 07:26:00,65.4,61.4,29.93,South,180,0.3,2.3,87,0.00,-RA,,0.00,0.0,WeatherDisplay:10.37,2013-03-12 11:26:00,
2013-03-12 07:31:00,65.4,61.4,29.93,South,180,0.7,3.5,87,0.00,-RA,,0.00,0.0,WeatherDisplay:10.37,2013-03-12 11:31:00,
2013-03-12 07:36:00,65.3,61.3,29.93,South,180,0.0,0.0,87,0.00,-RA,,0.00,0.0,WeatherDisplay:10.37,2013-03-12 11:36:00,
2013-03-12 07:41:00,65.2,61.2,29.92,South,180,0.0,0.0,87,0.00,-RA,,0.00,7.0,WeatherDisplay:10.37,2013-03-12 11:41:00,
2013-03-12 07:46:00,65.2,61.2,29.92,SE,142,0.2,1.2,87,0.00,-RA,,0.00,9.0,WeatherDisplay:10.37,2013-03-12 11:46:00,
2013-03-12 07:51:00,65.1,61.1,29.93,South,170,0.0,0.0,87,0.00,-RA,,0.00,11.0,WeatherDisplay:10.37,2013-03-12 11:51:00,
2013-03-12 07:56:00,65.1,61.1,29.93,SSE,163,2.9,4.6,87,0.00,-RA,,0.00,12.0,WeatherDisplay:10.37,2013-03-12 11:56:00,
2013-03-12 08:01:00,65.2,61.2,29.94,South,190,0.7,3.5,87,0.00,CLR,,0.00,18.0,WeatherDisplay:10.37,2013-03-12 12:01:00,
2013-03-12 08:06:00,65.3,61.3,29.93,South,184,2.5,4.6,87,0.00,CLR,,0.00,21.0,WeatherDisplay:10.37,2013-03-12 12:06:00,
2013-03-12 08:11:00,65.4,61.4,29.93,South,171,0.4,2.3,87,0.00,CLR,,0.00,32.0,WeatherDisplay:10.37,2013-03-12 12:11:00,
2013-03-12 08:16:00,65.5,61.5,29.93,South,175,0.6,3.5,87,0.00,CLR,,0.00,40.0,WeatherDisplay:10.37,2013-03-12 12:16:00,
2013-03-12 08:21:00,65.7,61.7,29.93,South,171,0.6,3.5,87,0.00,CLR,,0.00,56.0,WeatherDisplay:10.37,2013-03-12 12:21:00,
2013-03-12 08:26:00,65.9,61.9,29.94,SE,142,2.1,5.8,87,0.00,CLR,,0.00,56.0,WeatherDisplay:10.37,2013-03-12 12:26:00,
2013-03-12 08:31:00,66.2,62.2,29.94,SSW,200,0.9,3.5,87,0.00,CLR,,0.00,72.0,WeatherDisplay:10.37,2013-03-12 12:31:00,
2013-03-12 08:36:00,66.3,62.0,29.94,SSE,153,0.0,1.2,86,0.00,CLR,,0.00,90.0,WeatherDisplay:10.37,2013-03-12 12:36:00,
2013-03-12 08:41:00,66.6,62.6,29.94,South,189,3.3,6.9,87,0.00,CLR,,0.00,105.0,WeatherDisplay:10.37,2013-03-12 12:41:00,
2013-03-12 08:46:00,66.9,62.6,29.95,SSE,158,2.5,7.0,86,0.00,CLR,,0.00,81.0,WeatherDisplay:10.37,2013-03-12 12:46:00,
2013-03-12 08:51:00,67.2,62.9,29.95,SSW,198,1.8,6.9,86,0.00,CLR,,0.00,69.0,WeatherDisplay:10.37,2013-03-12 12:51:00,
2013-03-12 08:56:00,67.3,62.6,29.95,ESE,117,0.1,1.2,85,0.00,CLR,,0.00,72.0,WeatherDisplay:10.37,2013-03-12 12:56:00,
2013-03-12 09:01:00,67.5,62.8,29.95,SW,226,0.7,3.5,85,0.00,CLR,,0.00,77.0,WeatherDisplay:10.37,2013-03-12 13:01:00,
2013-03-12 09:06:00,67.6,62.9,29.95,ESE,120,1.9,4.6,85,0.00,CLR,,0.00,95.0,WeatherDisplay:10.37,2013-03-12 13:06:00,
2013-03-12 09:11:00,67.7,63.0,29.96,East,95,3.5,5.8,85,0.00,CLR,,0.00,72.0,WeatherDisplay:10.37,2013-03-12 13:11:00,
2013-03-12 09:16:00,67.9,63.2,29.96,SW,223,1.5,3.5,85,0.00,CLR,,0.00,37.0,WeatherDisplay:10.37,2013-03-12 13:16:00,
2013-03-12 09:21:00,67.9,63.2,29.97,SSW,204,1.6,3.5,85,0.00,CLR,,0.00,44.0,WeatherDisplay:10.37,2013-03-12 13:21:00,
2013-03-12 09:26:00,67.9,63.2,29.97,South,186,0.2,2.3,85,0.00,CLR,,0.00,44.0,WeatherDisplay:10.37,2013-03-12 13:26:00,
2013-03-12 09:31:00,68.0,63.3,29.97,ESE,112,0.1,1.0,85,0.00,CLR,,0.00,54.0,WeatherDisplay:10.37,2013-03-12 13:31:00,
2013-03-12 09:36:00,68.1,63.4,29.96,SW,219,0.4,3.0,85,0.00,CLR,,0.00,51.0,WeatherDisplay:10.37,2013-03-12 13:36:00,
2013-03-12 09:41:00,68.2,63.5,29.96,SE,135,2.0,4.6,85,0.00,CLR,,0.00,37.0,WeatherDisplay:10.37,2013-03-12 13:41:00,
2013-03-12 09:46:00,68.2,63.5,29.96,SSE,163,3.7,6.0,85,0.00,CLR,,0.00,30.0,WeatherDisplay:10.37,2013-03-12 13:46:00,
2013-03-12 09:51:00,68.3,63.6,29.96,South,170,0.3,3.0,85,0.00,CLR,,0.00,32.0,WeatherDisplay:10.37,2013-03-12 13:51:00,
2013-03-12 09:56:00,68.3,63.6,29.96,SSW,194,0.8,3.5,85,0.00,CLR,,0.00,30.0,WeatherDisplay:10.37,2013-03-12 13:56:00,
2013-03-12 10:01:00,68.2,63.9,29.96,ESE,120,0.2,2.3,86,0.00,-RA,,0.00,23.0,WeatherDisplay:10.37,2013-03-12 14:01:00,
2013-03-12 10:06:00,67.9,63.9,29.96,South,175,0.6,3.5,87,0.01,-RA,,0.01,26.0,WeatherDisplay:10.37,2013-03-12 14:06:00,
2013-03-12 10:11:00,67.5,63.8,29.97,South,182,0.0,1.2,88,0.02,-RA,,0.02,39.0,WeatherDisplay:10.37,2013-03-12 14:11:00,
2013-03-12 10:16:00,67.3,63.9,29.97,WSW,240,1.1,3.5,89,0.02,-RA,,0.03,37.0,WeatherDisplay:10.37,2013-03-12 14:16:00,
2013-03-12 10:21:00,67.1,64.1,29.97,SE,124,0.7,0.0,90,0.04,-RA,,0.04,47.0,WeatherDisplay:10.37,2013-03-12 14:21:00,
2013-03-12 10:26:00,67.0,64.3,29.97,South,184,0.4,1.2,91,0.05,-RA,,0.05,83.0,WeatherDisplay:10.37,2013-03-12 14:26:00,
2013-03-12 10:31:00,67.0,64.6,29.97,ESE,110,0.1,2.3,92,0.06,-RA,,0.06,139.0,WeatherDisplay:10.37,2013-03-12 14:31:00,
2013-03-12 10:36:00,67.3,64.9,29.97,South,187,0.0,2.3,92,0.07,-RA,,0.07,139.0,WeatherDisplay:10.37,2013-03-12 14:36:00,
2013-03-12 10:41:00,67.4,65.0,29.97,SSW,192,0.0,1.2,92,0.07,-RA,,0.07,90.0,WeatherDisplay:10.37,2013-03-12 14:41:00,
2013-03-12 10:46:00,67.5,65.1,29.97,South,185,0.0,1.2,92,0.07,-RA,,0.07,84.0,WeatherDisplay:10.37,2013-03-12 14:46:00,
2013-03-12 10:51:00,67.5,65.4,29.97,SSW,200,0.7,2.3,93,0.07,-RA,,0.07,98.0,WeatherDisplay:10.37,2013-03-12 14:51:00,
2013-03-12 10:56:00,67.6,65.5,29.97,South,183,0.4,1.2,93,0.08,-RA,,0.08,65.0,WeatherDisplay:10.37,2013-03-12 14:56:00,
2013-03-12 11:01:00,67.5,65.4,29.98,SW,232,0.3,2.3,93,0.08,RA,,0.08,42.0,WeatherDisplay:10.37,2013-03-12 15:01:00,
2013-03-12 11:06:00,67.5,65.4,29.98,SW,222,0.1,0.0,93,0.07,OVC,,0.08,44.0,WeatherDisplay:10.37,2013-03-12 15:06:00,
2013-03-12 11:12:00,67.4,65.3,29.98,South,174,0.7,3.5,93,0.06,OVC,,0.08,77.0,WeatherDisplay:10.37,2013-03-12 15:12:00,
2013-03-12 11:17:00,67.5,65.4,29.98,SSE,165,0.2,1.0,93,0.06,RA,,0.09,62.0,WeatherDisplay:10.37,2013-03-12 15:17:00,
2013-03-12 11:22:00,67.6,65.5,29.99,SW,223,0.1,1.2,93,0.06,RA,,0.10,28.0,WeatherDisplay:10.37,2013-03-12 15:22:00,
2013-03-12 11:27:00,67.6,65.5,29.98,SW,223,0.3,2.3,93,0.06,RA,,0.12,26.0,WeatherDisplay:10.37,2013-03-12 15:27:00,
2013-03-12 11:32:00,67.6,65.8,29.98,SW,223,0.0,0.0,94,0.08,RA,,0.14,35.0,WeatherDisplay:10.37,2013-03-12 15:32:00,
2013-03-12 11:37:00,67.6,65.8,29.98,South,180,0.1,0.0,94,0.10,RA,,0.17,60.0,WeatherDisplay:10.37,2013-03-12 15:37:00,
2013-03-12 11:42:00,67.7,65.9,29.98,South,172,0.6,1.2,94,0.13,RA,,0.20,98.0,WeatherDisplay:10.37,2013-03-12 15:42:00,
2013-03-12 11:47:00,68.0,66.2,29.98,South,172,0.0,0.0,94,0.14,RA,,0.21,104.0,WeatherDisplay:10.37,2013-03-12 15:47:00,
2013-03-12 11:52:00,68.2,66.4,29.98,South,171,0.0,0.0,94,0.13,RA,,0.21,118.0,WeatherDisplay:10.37,2013-03-12 15:52:00,
2013-03-12 11:57:00,68.5,66.7,29.98,South,172,0.0,1.2,94,0.13,OVC,,0.21,84.0,WeatherDisplay:10.37,2013-03-12 15:57:00,
2013-03-12 12:02:00,68.7,66.9,29.98,South,179,0.0,0.0,94,0.13,-RA,,0.21,67.0,WeatherDisplay:10.37,2013-03-12 16:02:00,
2013-03-12 12:07:00,68.7,66.9,29.98,SW,234,1.2,3.0,94,0.13,-RA,,0.21,62.0,WeatherDisplay:10.37,2013-03-12 16:07:00,
2013-03-12 12:12:00,68.6,66.8,29.98,SW,223,0.5,6.9,94,0.13,-RA,,0.21,56.0,WeatherDisplay:10.37,2013-03-12 16:12:00,
2013-03-12 12:17:00,68.6,66.8,29.98,South,180,1.5,5.8,94,0.12,-RA,,0.21,67.0,WeatherDisplay:10.37,2013-03-12 16:17:00,
2013-03-12 12:22:00,68.6,66.8,29.98,SSW,196,0.0,3.5,94,0.11,-RA,,0.21,171.0,WeatherDisplay:10.37,2013-03-12 16:22:00,
2013-03-12 12:27:00,68.9,67.1,29.98,SSW,200,0.0,0.0,94,0.10,-RA,,0.22,128.0,WeatherDisplay:10.37,2013-03-12 16:27:00,
2013-03-12 12:32:00,69.0,67.2,29.98,SW,215,0.3,1.2,94,0.08,-RA,,0.22,72.0,WeatherDisplay:10.37,2013-03-12 16:32:00,
2013-03-12 12:37:00,68.9,67.1,29.98,SSW,201,2.7,2.7,94,0.05,-RA,,0.22,88.0,WeatherDisplay:10.37,2013-03-12 16:37:00,
2013-03-12 12:42:00,69.0,67.2,29.98,South,180,0.0,3.5,94,0.02,-RA,,0.22,63.0,WeatherDisplay:10.37,2013-03-12 16:42:00,
2013-03-12 12:47:00,68.8,67.0,29.98,SSW,201,0.3,1.2,94,0.01,-RA,,0.22,60.0,WeatherDisplay:10.37,2013-03-12 16:47:00,
2013-03-12 12:52:00,68.8,67.0,29.97,SW,215,0.9,6.9,94,0.01,-RA,,0.22,79.0,WeatherDisplay:10.37,2013-03-12 16:52:00,
2013-03-12 12:57:00,68.8,67.0,29.97,SSW,196,0.5,6.9,94,0.01,-RA,,0.22,91.0,WeatherDisplay:10.37,2013-03-12 16:57:00,
2013-03-12 13:02:00,69.0,67.2,29.97,SSW,192,1.6,5.8,94,0.01,-RA,,0.22,58.0,WeatherDisplay:10.37,2013-03-12 17:02:00,
2013-03-12 13:07:00,69.0,66.9,29.97,South,180,2.5,4.6,93,0.01,-RA,,0.22,67.0,WeatherDisplay:10.37,2013-03-12 17:07:00,
2013-03-12 13:12:00,69.1,67.0,29.96,SSW,202,2.1,4.6,93,0.01,-RA,,0.22,70.0,WeatherDisplay:10.37,2013-03-12 17:12:00,
2013-03-12 13:18:00,69.1,67.0,29.96,SSW,199,2.0,4.6,93,0.01,-RA,,0.22,60.0,WeatherDisplay:10.37,2013-03-12 17:18:00,
2013-03-12 13:23:00,69.2,67.1,29.95,SSW,196,1.4,3.5,93,0.01,-RA,,0.22,81.0,WeatherDisplay:10.37,2013-03-12 17:23:00,
2013-03-12 13:28:00,69.3,67.5,29.94,SSW,194,0.1,6.0,94,0.01,-RA,,0.23,120.0,WeatherDisplay:10.37,2013-03-12 17:28:00,
2013-03-12 13:33:00,69.4,67.6,29.93,South,187,3.8,6.9,94,0.01,-RA,,0.23,202.0,WeatherDisplay:10.37,2013-03-12 17:33:00,
2013-03-12 13:38:00,69.7,67.9,29.93,South,184,2.3,4.6,94,0.01,-RA,,0.23,111.0,WeatherDisplay:10.37,2013-03-12 17:38:00,
2013-03-12 13:43:00,69.7,67.9,29.93,WSW,246,1.1,4.0,94,0.01,-RA,,0.23,54.0,WeatherDisplay:10.37,2013-03-12 17:43:00,
2013-03-12 13:48:00,69.5,67.7,29.93,SSW,207,3.0,3.5,94,0.01,-RA,,0.23,63.0,WeatherDisplay:10.37,2013-03-12 17:48:00,
2013-03-12 13:53:00,69.5,67.7,29.93,SSE,168,0.3,1.2,94,0.01,-RA,,0.23,105.0,WeatherDisplay:10.37,2013-03-12 17:53:00,
2013-03-12 13:58:00,69.8,68.0,29.93,SE,142,0.7,3.5,94,0.01,-RA,,0.23,580.0,WeatherDisplay:10.37,2013-03-12 17:58:00,
2013-03-12 14:03:00,70.7,68.9,29.93,SSE,163,2.7,5.8,94,0.01,OVC,,0.23,415.0,WeatherDisplay:10.37,2013-03-12 18:03:00,
2013-03-12 14:08:00,70.9,68.8,29.93,SSW,202,3.6,7.0,93,0.01,OVC,,0.23,374.0,WeatherDisplay:10.37,2013-03-12 18:08:00,
2013-03-12 14:13:00,71.5,69.4,29.93,SSW,197,0.3,3.5,93,0.01,OVC,,0.23,260.0,WeatherDisplay:10.37,2013-03-12 18:13:00,
2013-03-12 14:18:00,71.7,69.3,29.93,SSW,196,0.1,1.2,92,0.01,OVC,,0.23,267.0,WeatherDisplay:10.37,2013-03-12 18:18:00,
2013-03-12 14:23:00,71.8,69.0,29.92,SSW,209,0.0,2.3,91,0.01,OVC,,0.23,295.0,WeatherDisplay:10.37,2013-03-12 18:23:00,
2013-03-12 14:28:00,72.0,68.9,29.92,SW,215,1.4,5.8,90,0.00,OVC,,0.23,200.0,WeatherDisplay:10.37,2013-03-12 18:28:00,
2013-03-12 14:33:00,72.1,68.7,29.92,SSW,201,0.8,3.5,89,0.00,OVC,,0.23,304.0,WeatherDisplay:10.37,2013-03-12 18:33:00,
2013-03-12 14:39:00,72.2,68.4,29.92,South,175,1.8,7.0,88,0.00,OVC,,0.23,248.0,WeatherDisplay:10.37,2013-03-12 18:39:00,
2013-03-12 14:44:00,72.3,68.5,29.92,South,189,3.0,4.6,88,0.00,OVC,,0.23,276.0,WeatherDisplay:10.37,2013-03-12 18:44:00,
2013-03-12 14:49:00,72.4,68.3,29.92,South,170,0.2,1.2,87,0.00,OVC,,0.23,295.0,WeatherDisplay:10.37,2013-03-12 18:49:00,
2013-03-12 14:54:00,72.7,68.6,29.92,South,190,1.2,3.5,87,0.00,OVC,,0.23,243.0,WeatherDisplay:10.37,2013-03-12 18:54:00,
2013-03-12 14:59:00,72.7,68.6,29.91,SW,227,0.6,3.5,87,0.00,OVC,,0.23,179.0,WeatherDisplay:10.37,2013-03-12 18:59:00,
2013-03-12 15:04:00,72.7,68.3,29.91,SSW,210,1.7,5.8,86,0.00,BKN,,0.23,88.0,WeatherDisplay:10.37,2013-03-12 19:04:00,
2013-03-12 15:09:00,72.6,68.2,29.91,SSW,204,1.6,5.8,86,0.00,BKN,,0.23,58.0,WeatherDisplay:10.37,2013-03-12 19:09:00,
2013-03-12 15:14:00,72.4,68.0,29.91,SSW,201,1.2,5.8,86,0.00,BKN,,0.23,72.0,WeatherDisplay:10.37,2013-03-12 19:14:00,
2013-03-12 15:19:00,72.3,67.9,29.91,SSW,201,0.0,1.2,86,0.00,BKN,,0.23,104.0,WeatherDisplay:10.37,2013-03-12 19:19:00,
2013-03-12 15:24:00,72.3,68.2,29.91,South,178,2.4,3.5,87,0.00,BKN,,0.23,102.0,WeatherDisplay:10.37,2013-03-12 19:24:00,
2013-03-12 15:29:00,72.4,68.3,29.91,South,190,1.7,6.9,87,0.00,BKN,,0.23,105.0,WeatherDisplay:10.37,2013-03-12 19:29:00,
2013-03-12 15:34:00,72.5,68.1,29.91,South,175,1.6,10.4,86,0.00,BKN,,0.23,102.0,WeatherDisplay:10.37,2013-03-12 19:34:00,
2013-03-12 15:39:00,72.6,68.2,29.91,SSW,194,0.0,1.2,86,0.00,BKN,,0.23,113.0,WeatherDisplay:10.37,2013-03-12 19:39:00,
2013-03-12 15:44:00,72.8,68.0,29.91,SSW,207,1.9,3.5,85,0.00,BKN,,0.23,127.0,WeatherDisplay:10.37,2013-03-12 19:44:00,
2013-03-12 15:49:00,72.9,67.8,29.91,SW,236,4.3,6.9,84,0.00,BKN,,0.23,104.0,WeatherDisplay:10.37,2013-03-12 19:49:00,
2013-03-12 15:54:00,73.1,68.0,29.91,South,182,0.1,1.2,84,0.00,BKN,,0.23,125.0,WeatherDisplay:10.37,2013-03-12 19:54:00,
2013-03-12 15:59:00,73.2,68.1,29.91,SSW,209,0.6,3.5,84,0.00,BKN,,0.23,79.0,WeatherDisplay:10.37,2013-03-12 19:59:00,
2013-03-12 16:04:00,73.2,67.7,29.91,South,177,0.0,1.2,83,0.00,OVC,,0.23,70.0,WeatherDisplay:10.37,2013-03-12 20:04:00,
2013-03-12 16:09:00,73.2,67.4,29.91,SW,232,1.5,3.5,82,0.00,OVC,,0.23,67.0,WeatherDisplay:10.37,2013-03-12 20:09:00,
2013-03-12 16:14:00,73.1,67.3,29.91,SW,233,1.1,3.5,82,0.00,OVC,,0.23,84.0,WeatherDisplay:10.37,2013-03-12 20:14:00,
2013-03-12 16:19:00,73.0,67.2,29.91,WSW,249,0.2,2.3,82,0.00,OVC,,0.23,137.0,WeatherDisplay:10.37,2013-03-12 20:19:00,
2013-03-12 16:24:00,73.2,67.4,29.91,SW,221,1.1,3.5,82,0.00,OVC,,0.23,132.0,WeatherDisplay:10.37,2013-03-12 20:24:00,
2013-03-12 16:29:00,73.3,67.5,29.91,SW,227,0.5,3.5,82,0.00,OVC,,0.23,79.0,WeatherDisplay:10.37,2013-03-12 20:29:00,
2013-03-12 16:34:00,73.4,67.6,29.91,WSW,249,0.1,2.0,82,0.00,OVC,,0.23,111.0,WeatherDisplay:10.37,2013-03-12 20:34:00,
2013-03-12 16:39:00,73.4,67.6,29.91,West,263,0.0,1.0,82,0.00,OVC,,0.23,91.0,WeatherDisplay:10.37,2013-03-12 20:39:00,
2013-03-12 16:44:00,73.3,67.1,29.91,WSW,238,0.4,2.3,81,0.00,OVC,,0.23,79.0,WeatherDisplay:10.37,2013-03-12 20:44:00,
2013-03-12 16:49:00,73.2,67.0,29.91,West,259,0.0,0.0,81,0.00,OVC,,0.23,67.0,WeatherDisplay:10.37,2013-03-12 20:49:00,
2013-03-12 16:54:00,73.2,67.0,29.91,SW,231,0.1,1.2,81,0.00,OVC,,0.23,44.0,WeatherDisplay:10.37,2013-03-12 20:54:00,
2013-03-12 16:59:00,73.1,67.3,29.91,WSW,239,0.0,1.2,82,0.00,OVC,,0.23,81.0,WeatherDisplay:10.37,2013-03-12 20:59:00,
2013-03-12 17:04:00,73.0,67.2,29.91,West,275,0.3,3.0,82,0.00,OVC,,0.23,130.0,WeatherDisplay:10.37,2013-03-12 21:04:00,
2013-03-12 17:09:00,73.1,67.3,29.91,WSW,238,1.6,5.8,82,0.00,OVC,,0.23,79.0,WeatherDisplay:10.37,2013-03-12 21:09:00,
2013-03-12 17:14:00,73.1,67.3,29.91,WSW,254,1.9,4.6,82,0.00,OVC,,0.23,146.0,WeatherDisplay:10.37,2013-03-12 21:14:00,
2013-03-12 17:19:00,73.2,67.0,29.91,WSW,257,1.7,4.6,81,0.00,OVC,,0.23,167.0,WeatherDisplay:10.37,2013-03-12 21:19:00,
2013-03-12 17:24:00,73.3,66.8,29.90,WNW,287,0.9,3.5,80,0.00,OVC,,0.23,278.0,WeatherDisplay:10.37,2013-03-12 21:24:00,
2013-03-12 17:29:00,73.6,67.0,29.90,West,260,1.3,3.5,80,0.00,OVC,,0.23,190.0,WeatherDisplay:10.37,2013-03-12 21:29:00,
2013-03-12 17:34:00,73.5,66.9,29.91,SW,221,1.4,5.8,80,0.00,OVC,,0.23,165.0,WeatherDisplay:10.37,2013-03-12 21:34:00,
2013-03-12 17:39:00,73.5,66.9,29.91,WNW,300,3.2,8.1,80,0.00,OVC,,0.23,114.0,WeatherDisplay:10.37,2013-03-12 21:39:00,
2013-03-12 17:44:00,73.4,66.9,29.91,SW,234,2.0,4.6,80,0.00,OVC,,0.23,104.0,WeatherDisplay:10.37,2013-03-12 21:44:00,
2013-03-12 17:49:00,73.2,67.0,29.91,WNW,283,0.9,3.5,81,0.00,OVC,,0.23,90.0,WeatherDisplay:10.37,2013-03-12 21:49:00,
2013-03-12 17:54:00,73.0,66.8,29.91,WSW,255,1.7,4.6,81,0.00,OVC,,0.23,116.0,WeatherDisplay:10.37,2013-03-12 21:54:00,
2013-03-12 17:59:00,72.9,67.1,29.91,WSW,241,0.4,2.0,82,0.00,OVC,,0.23,118.0,WeatherDisplay:10.37,2013-03-12 21:59:00,
2013-03-12 18:04:00,72.7,66.9,29.91,WSW,257,1.8,5.8,82,0.00,BKN,,0.23,98.0,WeatherDisplay:10.37,2013-03-12 22:04:00,
2013-03-12 18:09:00,72.5,67.0,29.91,SW,234,2.8,8.1,83,0.00,BKN,,0.23,107.0,WeatherDisplay:10.37,2013-03-12 22:09:00,
2013-03-12 18:14:00,72.4,66.9,29.91,SW,233,1.6,4.6,83,0.00,BKN,,0.23,84.0,WeatherDisplay:10.37,2013-03-12 22:14:00,
2013-03-12 18:19:00,72.2,66.7,29.91,West,273,1.7,3.5,83,0.00,BKN,,0.23,77.0,WeatherDisplay:10.37,2013-03-12 22:19:00,
2013-03-12 18:24:00,72.0,66.6,29.91,WSW,250,0.3,2.3,83,0.00,BKN,,0.23,74.0,WeatherDisplay:10.37,2013-03-12 22:24:00,
2013-03-12 18:29:00,71.8,66.7,29.92,WSW,244,1.9,5.8,84,0.00,BKN,,0.23,74.0,WeatherDisplay:10.37,2013-03-12 22:29:00,
2013-03-12 18:34:00,71.8,66.7,29.91,WSW,244,1.8,3.5,84,0.00,BKN,,0.23,62.0,WeatherDisplay:10.37,2013-03-12 22:34:00,
2013-03-12 18:39:00,71.6,66.5,29.91,WSW,240,1.7,4.0,84,0.00,BKN,,0.23,56.0,WeatherDisplay:10.37,2013-03-12 22:39:00,
2013-03-12 18:44:00,71.5,66.4,29.91,SW,235,0.1,1.2,84,0.00,BKN,,0.23,49.0,WeatherDisplay:10.37,2013-03-12 22:44:00,
2013-03-12 18:49:00,71.3,66.6,29.92,SW,226,0.0,0.0,85,0.00,BKN,,0.23,47.0,WeatherDisplay:10.37,2013-03-12 22:49:00,
2013-03-12 18:54:00,71.2,66.5,29.91,SW,223,0.5,2.0,85,0.00,BKN,,0.23,44.0,WeatherDisplay:10.37,2013-03-12 22:54:00,
2013-03-12 18:59:00,71.0,66.3,29.92,SW,223,0.9,3.5,85,0.00,BKN,,0.23,32.0,WeatherDisplay:10.37,2013-03-12 22:59:00,
2013-03-12 19:04:00,70.8,66.4,29.92,SW,227,0.0,0.0,86,0.00,SCT,,0.23,25.0,WeatherDisplay:10.37,2013-03-12 23:04:00,
2013-03-12 19:09:00,70.6,66.2,29.91,SW,235,0.0,0.0,86,0.00,SCT,,0.23,19.0,WeatherDisplay:10.37,2013-03-12 23:09:00,
2013-03-12 19:14:00,70.4,66.0,29.91,West,267,0.0,0.0,86,0.00,SCT,,0.23,14.0,WeatherDisplay:10.37,2013-03-12 23:14:00,
2013-03-12 19:19:00,70.2,65.8,29.91,West,267,0.0,0.0,86,0.00,SCT,,0.23,11.0,WeatherDisplay:10.37,2013-03-12 23:19:00,
2013-03-12 19:24:00,70.0,65.6,29.91,South,184,0.3,0.0,86,0.00,SCT,,0.23,5.0,WeatherDisplay:10.37,2013-03-12 23:24:00,
2013-03-12 19:29:00,69.8,65.8,29.91,South,191,0.0,0.0,87,0.00,SCT,,0.23,0.0,WeatherDisplay:10.37,2013-03-12 23:29:00,
2013-03-12 19:34:00,69.5,65.5,29.92,SSW,192,0.0,0.0,87,0.00,SCT,,0.23,0.0,WeatherDisplay:10.37,2013-03-12 23:34:00,
2013-03-12 19:39:00,69.2,65.5,29.92,WSW,244,0.0,1.2,88,0.00,SCT,,0.23,0.0,WeatherDisplay:10.37,2013-03-12 23:39:00,
2013-03-12 19:44:00,69.0,65.3,29.92,SW,233,2.0,3.5,88,0.00,SCT,,0.23,0.0,WeatherDisplay:10.37,2013-03-12 23:44:00,
2013-03-12 19:49:00,68.9,65.2,29.93,WSW,239,1.3,3.0,88,0.00,SCT,,0.23,0.0,WeatherDisplay:10.37,2013-03-12 23:49:00,
2013-03-12 19:54:00,68.8,65.1,29.94,SSW,207,0.0,0.0,88,0.00,SCT,,0.23,0.0,WeatherDisplay:10.37,2013-03-12 23:54:00,
2013-03-12 19:59:00,68.6,64.9,29.93,SSW,206,0.0,1.2,88,0.00,SCT,,0.23,0.0,WeatherDisplay:10.37,2013-03-12 23:59:00,
2013-03-12 20:04:00,68.4,65.0,29.93,SSW,206,0.0,0.0,89,0.00,FEW,,0.23,0.0,WeatherDisplay:10.37,2013-03-13 00:04:00,
2013-03-12 20:09:00,68.2,64.8,29.94,SSW,206,0.0,1.2,89,0.00,FEW,,0.23,0.0,WeatherDisplay:10.37,2013-03-13 00:09:00,
2013-03-12 20:14:00,67.9,64.5,29.94,SSW,207,0.1,1.2,89,0.00,FEW,,0.23,0.0,WeatherDisplay:10.37,2013-03-13 00:14:00,
2013-03-12 20:19:00,67.7,64.3,29.94,SSW,207,0.0,0.0,89,0.00,FEW,,0.23,0.0,WeatherDisplay:10.37,2013-03-13 00:19:00,
2013-03-12 20:24:00,67.4,64.0,29.94,SSW,206,0.1,2.3,89,0.00,FEW,,0.23,0.0,WeatherDisplay:10.37,2013-03-13 00:24:00,
2013-03-12 20:29:00,67.2,64.2,29.94,SSW,207,0.0,0.0,90,0.00,FEW,,0.23,0.0,WeatherDisplay:10.37,2013-03-13 00:29:00,
2013-03-12 20:34:00,67.1,64.1,29.95,SSW,207,0.0,0.0,90,0.00,FEW,,0.23,0.0,WeatherDisplay:10.37,2013-03-13 00:34:00,
2013-03-12 20:39:00,67.1,64.4,29.95,SSW,208,0.0,1.2,91,0.00,FEW,,0.23,0.0,WeatherDisplay:10.37,2013-03-13 00:39:00,
2013-03-12 20:44:00,67.1,64.4,29.96,SW,215,0.1,3.5,91,0.00,FEW,,0.23,0.0,WeatherDisplay:10.37,2013-03-13 00:44:00,
2013-03-12 20:49:00,67.2,64.5,29.95,SW,220,0.0,0.0,91,0.00,FEW,,0.23,0.0,WeatherDisplay:10.37,2013-03-13 00:49:00,
2013-03-12 20:54:00,67.3,64.6,29.96,SW,220,0.0,0.0,91,0.00,FEW,,0.23,0.0,WeatherDisplay:10.37,2013-03-13 00:54:00,
2013-03-12 20:59:00,67.4,64.7,29.96,SW,227,0.0,0.0,91,0.00,FEW,,0.23,0.0,WeatherDisplay:10.37,2013-03-13 00:59:00,
2013-03-12 21:04:00,67.4,64.7,29.96,SW,227,0.1,0.0,91,0.00,OVC,,0.23,0.0,WeatherDisplay:10.37,2013-03-13 01:04:00,
2013-03-12 21:09:00,67.4,64.7,29.96,SW,227,0.0,0.0,91,0.00,OVC,,0.23,0.0,WeatherDisplay:10.37,2013-03-13 01:09:00,
2013-03-12 21:14:00,67.4,64.7,29.96,SW,236,0.8,3.5,91,0.00,OVC,,0.23,0.0,WeatherDisplay:10.37,2013-03-13 01:14:00,
2013-03-12 21:19:00,67.4,64.7,29.97,SW,230,1.2,2.3,91,0.00,OVC,,0.23,0.0,WeatherDisplay:10.37,2013-03-13 01:19:00,
2013-03-12 21:24:00,67.3,64.3,29.97,SW,219,1.0,3.5,90,0.00,OVC,,0.23,0.0,WeatherDisplay:10.37,2013-03-13 01:24:00,
2013-03-12 21:29:00,67.2,64.2,29.97,WSW,252,1.4,3.5,90,0.00,OVC,,0.23,0.0,WeatherDisplay:10.37,2013-03-13 01:29:00,
2013-03-12 21:34:00,67.2,63.8,29.97,WSW,249,0.5,3.5,89,0.00,OVC,,0.23,0.0,WeatherDisplay:10.37,2013-03-13 01:34:00,
2013-03-12 21:39:00,67.2,63.8,29.98,SW,219,2.8,4.6,89,0.00,OVC,,0.23,0.0,WeatherDisplay:10.37,2013-03-13 01:39:00,
2013-03-12 21:44:00,67.0,63.3,29.98,WNW,295,2.2,5.8,88,0.00,OVC,,0.23,0.0,WeatherDisplay:10.37,2013-03-13 01:44:00,
2013-03-12 21:49:00,66.9,63.2,29.99,West,275,0.7,3.5,88,0.00,OVC,,0.23,0.0,WeatherDisplay:10.37,2013-03-13 01:49:00,
2013-03-12 21:54:00,66.7,63.0,29.99,West,268,1.5,6.9,88,0.00,OVC,,0.23,0.0,WeatherDisplay:10.37,2013-03-13 01:54:00,
2013-03-12 21:59:00,66.5,62.8,29.99,WSW,258,0.8,6.9,88,0.00,OVC,,0.23,0.0,WeatherDisplay:10.37,2013-03-13 01:59:00,
2013-03-12 22:04:00,66.2,62.2,29.99,West,277,0.5,4.0,87,0.00,BKN,,0.23,0.0,WeatherDisplay:10.37,2013-03-13 02:04:00,
2013-03-12 22:09:00,66.0,62.0,30.00,WNW,289,0.0,3.5,87,0.00,BKN,,0.23,0.0,WeatherDisplay:10.37,2013-03-13 02:09:00,
2013-03-12 22:14:00,65.6,61.6,30.00,WNW,288,2.0,5.8,87,0.00,BKN,,0.23,0.0,WeatherDisplay:10.37,2013-03-13 02:14:00,
2013-03-12 22:19:00,65.4,61.1,30.00,West,270,0.4,3.5,86,0.00,BKN,,0.23,0.0,WeatherDisplay:10.37,2013-03-13 02:19:00,
2013-03-12 22:24:00,65.2,60.9,30.01,NW,313,0.6,5.8,86,0.00,BKN,,0.23,0.0,WeatherDisplay:10.37,2013-03-13 02:24:00,
2013-03-12 22:29:00,64.9,60.6,30.01,WSW,255,0.1,5.8,86,0.00,BKN,,0.23,0.0,WeatherDisplay:10.37,2013-03-13 02:29:00,
2013-03-12 22:34:00,64.6,60.3,30.01,West,259,1.1,2.3,86,0.00,BKN,,0.23,0.0,WeatherDisplay:10.37,2013-03-13 02:34:00,
2013-03-12 22:39:00,64.4,60.1,30.00,West,259,0.1,1.0,86,0.00,BKN,,0.23,0.0,WeatherDisplay:10.37,2013-03-13 02:39:00,
2013-03-12 22:44:00,64.2,59.9,30.00,West,261,0.8,1.0,86,0.00,BKN,,0.23,0.0,WeatherDisplay:10.37,2013-03-13 02:44:00,
2013-03-12 22:49:00,63.9,59.6,30.01,West,261,0.1,1.0,86,0.00,BKN,,0.23,0.0,WeatherDisplay:10.37,2013-03-13 02:49:00,
2013-03-12 22:54:00,63.6,59.7,30.01,West,261,0.1,0.0,87,0.00,BKN,,0.23,0.0,WeatherDisplay:10.37,2013-03-13 02:54:00,
2013-03-12 22:59:00,63.3,59.4,30.00,West,261,0.0,0.0,87,0.00,BKN,,0.23,0.0,WeatherDisplay:10.37,2013-03-13 02:59:00,
2013-03-12 23:04:00,63.0,59.1,30.00,West,264,0.0,0.0,87,0.00,CLR,,0.23,0.0,WeatherDisplay:10.37,2013-03-13 03:04:00,
2013-03-12 23:09:00,62.6,58.7,30.00,West,262,0.0,0.0,87,0.00,CLR,,0.23,0.0,WeatherDisplay:10.37,2013-03-13 03:09:00,
2013-03-12 23:14:00,62.2,58.6,30.00,West,273,1.1,3.5,88,0.00,CLR,,0.23,0.0,WeatherDisplay:10.37,2013-03-13 03:14:00,
2013-03-12 23:19:00,61.9,58.3,30.00,West,273,0.0,0.0,88,0.00,CLR,,0.23,0.0,WeatherDisplay:10.37,2013-03-13 03:19:00,
2013-03-12 23:24:00,61.7,58.1,30.01,West,273,0.0,1.2,88,0.00,CLR,,0.23,0.0,WeatherDisplay:10.37,2013-03-13 03:24:00,
2013-03-12 23:29:00,61.4,57.8,30.01,West,260,0.0,3.5,88,0.00,CLR,,0.23,0.0,WeatherDisplay:10.37,2013-03-13 03:29:00,
2013-03-12 23:34:00,61.1,57.8,30.01,West,260,0.0,0.0,89,0.00,CLR,,0.23,0.0,WeatherDisplay:10.37,2013-03-13 03:34:00,
2013-03-12 23:39:00,60.9,57.6,30.01,West,265,0.4,0.0,89,0.00,CLR,,0.23,0.0,WeatherDisplay:10.37,2013-03-13 03:39:00,
2013-03-12 23:44:00,60.7,57.4,30.01,West,265,0.0,0.0,89,0.00,CLR,,0.23,0.0,WeatherDisplay:10.37,2013-03-13 03:44:00,
2013-03-12 23:49:00,60.5,57.2,30.01,West,269,0.3,2.3,89,0.00,CLR,,0.23,0.0,WeatherDisplay:10.37,2013-03-13 03:49:00,
2013-03-12 23:54:00,60.2,56.9,30.01,WNW,286,1.7,3.5,89,0.00,CLR,,0.23,0.0,WeatherDisplay:10.37,2013-03-13 03:54:00,
2013-03-12 23:59:00,60.1,57.2,30.01,WNW,284,0.4,2.3,90,0.00,CLR,,0.23,0.0,WeatherDisplay:10.37,2013-03-13 03:59:00,